Time,TemperatureF,DewpointF,PressureIn,WindDirection,WindDirectionDegrees,WindSpeedMPH,WindSpeedGustMPH,Humidity,HourlyPrecipIn,Conditions,Clouds,dailyrainin,SoftwareType,DateUTC
2013-03-25 00:07:00,30.1,20.8,29.70,NE,49,10.0,10.0,68,0.00,,,0.00,Wunderground v.1.15,2013-03-25 04:07:00,
2013-03-25 00:17:00,30.1,20.5,29.70,NE,35,9.0,9.0,67,0.00,,,0.00,Wunderground v.1.15,2013-03-25 04:17:00,
2013-03-25 00:27:00,30.1,20.8,29.70,ENE,72,8.0,11.0,68,0.00,,,0.00,Wunderground v.1.15,2013-03-25 04:27:00,
2013-03-25 00:37:00,30.1,20.8,29.70,NNE,20,8.0,8.0,68,0.00,,,0.00,Wunderground v.1.15,2013-03-25 04:37:00,
2013-03-25 00:47:00,30.1,21.2,29.70,NE,40,7.0,7.0,69,0.00,,,0.00,Wunderground v.1.15,2013-03-25 04:47:00,
2013-03-25 00:57:00,30.1,21.2,29.69,NE,48,8.0,8.0,69,0.00,,,0.00,Wunderground v.1.15,2013-03-25 04:57:00,
2013-03-25 01:07:00,30.1,21.2,29.69,NE,36,7.0,7.0,69,0.00,,,0.00,Wunderground v.1.15,2013-03-25 05:07:00,
2013-03-25 01:17:00,30.1,21.2,29.69,NE,45,7.0,8.0,69,0.00,,,0.00,Wunderground v.1.15,2013-03-25 05:17:00,
2013-03-25 01:27:00,30.1,21.2,29.68,NNE,23,6.0,6.0,69,0.00,,,0.00,Wunderground v.1.15,2013-03-25 05:27:00,
2013-03-25 01:37:00,30.1,21.2,29.68,NNE,17,7.0,11.0,69,0.00,,,0.00,Wunderground v.1.15,2013-03-25 05:37:00,
2013-03-25 01:47:00,30.1,21.5,29.68,NE,41,6.0,6.0,70,0.00,,,0.00,Wunderground v.1.15,2013-03-25 05:47:00,
2013-03-25 01:57:00,30.0,21.4,29.68,NNE,30,6.0,6.0,70,0.00,,,0.00,Wunderground v.1.15,2013-03-25 05:57:00,
2013-03-25 02:07:00,30.1,21.8,29.68,North,10,6.0,6.0,71,0.00,,,0.00,Wunderground v.1.15,2013-03-25 06:07:00,
2013-03-25 02:17:00,30.1,21.8,29.67,NNE,22,7.0,9.0,71,0.00,,,0.00,Wunderground v.1.15,2013-03-25 06:17:00,
2013-03-25 02:27:00,30.1,22.2,29.67,NNE,28,7.0,7.0,72,0.00,,,0.00,Wunderground v.1.15,2013-03-25 06:27:00,
2013-03-25 02:37:00,30.1,22.2,29.67,NNE,33,6.0,6.0,72,0.00,,,0.00,Wunderground v.1.15,2013-03-25 06:37:00,
2013-03-25 02:47:00,30.1,22.2,29.66,NNE,22,7.0,7.0,72,0.00,,,0.00,Wunderground v.1.15,2013-03-25 06:47:00,
2013-03-25 02:57:00,30.1,22.5,29.66,NNE,23,8.0,8.0,73,0.00,,,0.00,Wunderground v.1.15,2013-03-25 06:57:00,
2013-03-25 03:07:00,30.1,22.5,29.66,NNE,19,8.0,8.0,73,0.00,,,0.00,Wunderground v.1.15,2013-03-25 07:07:00,
2013-03-25 03:17:00,30.3,22.7,29.66,North,11,8.0,8.0,73,0.00,,,0.00,Wunderground v.1.15,2013-03-25 07:17:00,
2013-03-25 03:27:00,30.3,23.0,29.66,NNE,23,7.0,12.0,74,0.00,,,0.00,Wunderground v.1.15,2013-03-25 07:27:00,
2013-03-25 03:37:00,30.3,23.0,29.66,NNE,22,9.0,11.0,74,0.00,,,0.00,Wunderground v.1.15,2013-03-25 07:37:00,
2013-03-25 03:47:00,30.4,23.1,29.65,NE,35,10.0,14.0,74,0.00,,,0.00,Wunderground v.1.15,2013-03-25 07:47:00,
2013-03-25 03:57:00,30.4,23.1,29.65,NE,41,9.0,9.0,74,0.00,,,0.00,Wunderground v.1.15,2013-03-25 07:57:00,
2013-03-25 04:07:00,30.6,23.3,29.65,NE,42,10.0,10.0,74,0.00,,,0.00,Wunderground v.1.15,2013-03-25 08:07:00,
2013-03-25 04:17:00,30.6,23.3,29.64,NNE,31,10.0,11.0,74,0.00,,,0.00,Wunderground v.1.15,2013-03-25 08:17:00,
2013-03-25 04:27:00,30.6,23.3,29.63,NNE,28,9.0,9.0,74,0.00,,,0.00,Wunderground v.1.15,2013-03-25 08:27:00,
2013-03-25 04:37:00,30.6,23.6,29.63,NNE,22,9.0,9.0,75,0.00,,,0.00,Wunderground v.1.15,2013-03-25 08:37:00,
2013-03-25 04:47:00,30.6,23.6,29.63,NE,54,10.0,11.0,75,0.00,,,0.00,Wunderground v.1.15,2013-03-25 08:47:00,
2013-03-25 04:57:00,30.7,23.7,29.63,NE,49,9.0,11.0,75,0.00,,,0.00,Wunderground v.1.15,2013-03-25 08:57:00,
2013-03-25 05:07:00,30.7,23.7,29.63,NNE,20,9.0,12.0,75,0.00,,,0.00,Wunderground v.1.15,2013-03-25 09:07:00,
2013-03-25 05:17:00,30.9,23.9,29.63,NE,34,9.0,9.0,75,0.00,,,0.00,Wunderground v.1.15,2013-03-25 09:17:00,
2013-03-25 05:27:00,30.9,23.9,29.63,NNE,13,8.0,9.0,75,0.00,,,0.00,Wunderground v.1.15,2013-03-25 09:27:00,
2013-03-25 05:37:00,30.9,23.9,29.63,NE,37,7.0,9.0,75,0.00,,,0.00,Wunderground v.1.15,2013-03-25 09:37:00,
2013-03-25 05:47:00,30.9,23.9,29.63,NE,40,9.0,9.0,75,0.00,,,0.00,Wunderground v.1.15,2013-03-25 09:47:00,
2013-03-25 05:57:00,31.0,24.0,29.64,NNE,18,8.0,11.0,75,0.00,,,0.00,Wunderground v.1.15,2013-03-25 09:57:00,
2013-03-25 06:07:00,31.0,24.0,29.64,NE,54,9.0,10.0,75,0.00,,,0.00,Wunderground v.1.15,2013-03-25 10:07:00,
2013-03-25 06:17:00,31.0,24.0,29.64,NNE,32,8.0,9.0,75,0.00,,,0.00,Wunderground v.1.15,2013-03-25 10:17:00,
2013-03-25 06:27:00,30.9,23.9,29.64,NNE,18,8.0,8.0,75,0.00,,,0.00,Wunderground v.1.15,2013-03-25 10:27:00,
2013-03-25 06:37:00,30.9,23.9,29.64,NNE,30,9.0,9.0,75,0.00,,,0.00,Wunderground v.1.15,2013-03-25 10:37:00,
2013-03-25 06:47:00,30.9,23.9,29.64,NNE,19,8.0,8.0,75,0.00,,,0.00,Wunderground v.1.15,2013-03-25 10:47:00,
2013-03-25 06:57:00,30.9,23.9,29.65,NE,39,9.0,11.0,75,0.00,,,0.00,Wunderground v.1.15,2013-03-25 10:57:00,
2013-03-25 07:07:00,30.9,23.9,29.65,NE,53,9.0,9.0,75,0.00,,,0.00,Wunderground v.1.15,2013-03-25 11:07:00,
2013-03-25 07:17:00,30.9,23.9,29.65,NW,313,8.0,8.0,75,0.00,,,0.00,Wunderground v.1.15,2013-03-25 11:17:00,
2013-03-25 07:27:00,30.7,24.0,29.65,NNE,15,8.0,8.0,76,0.00,,,0.00,Wunderground v.1.15,2013-03-25 11:27:00,
2013-03-25 07:37:00,30.4,23.7,29.65,NNE,20,8.0,10.0,76,0.00,,,0.00,Wunderground v.1.15,2013-03-25 11:37:00,
2013-03-25 07:47:00,30.3,24.0,29.66,North,5,8.0,8.0,77,0.00,,,0.00,Wunderground v.1.15,2013-03-25 11:47:00,
2013-03-25 07:57:00,30.1,23.8,29.66,North,360,7.0,16.0,77,0.00,,,0.00,Wunderground v.1.15,2013-03-25 11:57:00,
2013-03-25 08:07:00,30.1,23.8,29.66,NE,40,9.0,12.0,77,0.00,,,0.00,Wunderground v.1.15,2013-03-25 12:07:00,
2013-03-25 08:17:00,30.3,24.0,29.67,NNE,21,9.0,9.0,77,0.00,,,0.00,Wunderground v.1.15,2013-03-25 12:17:00,
2013-03-25 08:27:00,30.3,24.0,29.68,NNE,20,7.0,8.0,77,0.00,,,0.00,Wunderground v.1.15,2013-03-25 12:27:00,
2013-03-25 08:37:00,30.4,24.1,29.68,NNE,32,7.0,7.0,77,0.00,,,0.00,Wunderground v.1.15,2013-03-25 12:37:00,
2013-03-25 08:47:00,30.6,24.2,29.68,NE,42,8.0,8.0,77,0.00,,,0.00,Wunderground v.1.15,2013-03-25 12:47:00,
2013-03-25 08:57:00,30.7,24.0,29.69,North,360,8.0,8.0,76,0.00,,,0.00,Wunderground v.1.15,2013-03-25 12:57:00,
2013-03-25 09:07:00,31.0,24.3,29.69,NNE,28,8.0,8.0,76,0.00,,,0.00,Wunderground v.1.15,2013-03-25 13:07:00,
2013-03-25 09:17:00,31.2,24.2,29.69,NNE,18,8.0,8.0,75,0.00,,,0.00,Wunderground v.1.15,2013-03-25 13:17:00,
2013-03-25 09:27:00,31.5,24.5,29.69,NNE,30,9.0,9.0,75,0.00,,,0.00,Wunderground v.1.15,2013-03-25 13:27:00,
2013-03-25 09:37:00,31.6,24.6,29.69,NNE,18,8.0,8.0,75,0.00,,,0.00,Wunderground v.1.15,2013-03-25 13:37:00,
2013-03-25 09:47:00,31.9,24.9,29.70,NNE,27,9.0,11.0,75,0.00,,,0.00,Wunderground v.1.15,2013-03-25 13:47:00,
2013-03-25 09:57:00,32.1,24.7,29.70,NNE,16,9.0,9.0,74,0.00,,,0.00,Wunderground v.1.15,2013-03-25 13:57:00,
2013-03-25 10:07:00,32.5,25.1,29.70,NNE,19,7.0,7.0,74,0.00,,,0.00,Wunderground v.1.15,2013-03-25 14:07:00,
2013-03-25 10:17:00,32.5,24.8,29.71,North,5,9.0,9.0,73,0.00,,,0.00,Wunderground v.1.15,2013-03-25 14:17:00,
2013-03-25 10:27:00,32.7,24.7,29.71,NNE,28,8.0,8.0,72,0.00,,,0.00,Wunderground v.1.15,2013-03-25 14:27:00,
2013-03-25 10:37:00,32.8,24.8,29.71,NNE,26,8.0,8.0,72,0.00,,,0.00,Wunderground v.1.15,2013-03-25 14:37:00,
2013-03-25 10:47:00,32.9,24.9,29.71,NNE,22,9.0,9.0,72,0.00,,,0.00,Wunderground v.1.15,2013-03-25 14:47:00,
2013-03-25 10:57:00,33.2,24.8,29.72,NNE,30,8.0,16.0,71,0.00,,,0.00,Wunderground v.1.15,2013-03-25 14:57:00,
2013-03-25 11:17:00,34.0,24.9,29.72,North,10,9.0,12.0,69,0.00,,,0.00,Wunderground v.1.15,2013-03-25 15:17:00,
2013-03-25 11:27:00,34.0,24.5,29.72,NNW,348,9.0,9.0,68,0.00,,,0.00,Wunderground v.1.15,2013-03-25 15:27:00,
2013-03-25 11:37:00,34.0,24.5,29.72,NNE,30,9.0,9.0,68,0.00,,,0.00,Wunderground v.1.15,2013-03-25 15:37:00,
2013-03-25 11:47:00,34.1,24.6,29.72,NNE,21,7.0,7.0,68,0.00,,,0.00,Wunderground v.1.15,2013-03-25 15:47:00,
2013-03-25 11:57:00,34.3,24.8,29.74,North,11,7.0,13.0,68,0.00,,,0.00,Wunderground v.1.15,2013-03-25 15:57:00,
2013-03-25 12:07:00,34.7,24.9,29.74,NNE,19,8.0,16.0,67,0.00,,,0.00,Wunderground v.1.15,2013-03-25 16:07:00,
2013-03-25 12:17:00,35.0,24.8,29.74,North,355,8.0,8.0,66,0.00,,,0.00,Wunderground v.1.15,2013-03-25 16:17:00,
2013-03-25 12:27:00,35.2,24.2,29.74,NNE,22,9.0,9.0,64,0.00,,,0.00,Wunderground v.1.15,2013-03-25 16:27:00,
2013-03-25 12:37:00,35.3,24.0,29.74,North,9,9.0,9.0,63,0.00,,,0.00,Wunderground v.1.15,2013-03-25 16:37:00,
2013-03-25 12:47:00,35.6,23.9,29.74,NNE,23,9.0,9.0,62,0.00,,,0.00,Wunderground v.1.15,2013-03-25 16:47:00,
2013-03-25 12:57:00,35.6,23.5,29.74,North,11,10.0,16.0,61,0.00,,,0.00,Wunderground v.1.15,2013-03-25 16:57:00,
2013-03-25 13:07:00,35.8,24.0,29.74,NNE,24,8.0,8.0,62,0.00,,,0.00,Wunderground v.1.15,2013-03-25 17:07:00,
2013-03-25 13:17:00,35.9,24.1,29.75,North,5,9.0,9.0,62,0.00,,,0.00,Wunderground v.1.15,2013-03-25 17:17:00,
2013-03-25 13:27:00,35.8,24.8,29.75,NNE,21,8.0,9.0,64,0.00,,,0.00,Wunderground v.1.15,2013-03-25 17:27:00,
2013-03-25 13:37:00,36.6,24.8,29.75,North,11,7.0,10.0,62,0.00,,,0.00,Wunderground v.1.15,2013-03-25 17:37:00,
2013-03-25 13:47:00,36.6,24.8,29.75,North,5,7.0,7.0,62,0.00,,,0.00,Wunderground v.1.15,2013-03-25 17:47:00,
2013-03-25 13:57:00,36.5,24.7,29.75,NNE,20,7.0,9.0,62,0.00,,,0.00,Wunderground v.1.15,2013-03-25 17:57:00,
2013-03-25 14:07:00,36.5,25.5,29.75,NNW,342,8.0,8.0,64,0.00,,,0.00,Wunderground v.1.15,2013-03-25 18:07:00,
2013-03-25 14:17:00,36.6,25.6,29.76,North,5,6.0,9.0,64,0.00,,,0.00,Wunderground v.1.15,2013-03-25 18:17:00,
2013-03-25 14:27:00,36.3,25.7,29.76,North,5,7.0,8.0,65,0.00,,,0.00,Wunderground v.1.15,2013-03-25 18:27:00,
2013-03-25 14:37:00,36.6,26.7,29.76,North,5,8.0,8.0,67,0.00,,,0.00,Wunderground v.1.15,2013-03-25 18:37:00,
2013-03-25 14:47:00,37.2,26.5,29.77,NW,321,7.0,7.0,65,0.00,,,0.00,Wunderground v.1.15,2013-03-25 18:47:00,
2013-03-25 14:57:00,37.3,26.2,29.77,NW,317,8.0,8.0,64,0.00,,,0.00,Wunderground v.1.15,2013-03-25 18:57:00,
2013-03-25 15:07:00,37.8,25.9,29.77,North,5,8.0,8.0,62,0.00,,,0.00,Wunderground v.1.15,2013-03-25 19:07:00,
2013-03-25 15:17:00,37.6,25.0,29.77,North,5,8.0,8.0,60,0.00,,,0.00,Wunderground v.1.15,2013-03-25 19:17:00,
2013-03-25 15:27:00,37.3,25.1,29.77,NNE,19,7.0,7.0,61,0.00,,,0.00,Wunderground v.1.15,2013-03-25 19:27:00,
2013-03-25 15:37:00,37.5,24.1,29.77,NNE,27,9.0,9.0,58,0.00,,,0.00,Wunderground v.1.15,2013-03-25 19:37:00,
2013-03-25 15:47:00,37.0,24.4,29.77,North,360,8.0,10.0,60,0.00,,,0.00,Wunderground v.1.15,2013-03-25 19:47:00,
2013-03-25 15:57:00,37.2,25.0,29.77,NNW,333,8.0,13.0,61,0.00,,,0.00,Wunderground v.1.15,2013-03-25 19:57:00,
2013-03-25 16:07:00,37.9,25.2,29.77,North,9,8.0,11.0,60,0.00,,,0.00,Wunderground v.1.15,2013-03-25 20:07:00,
2013-03-25 16:17:00,38.6,25.1,29.78,NNW,327,8.0,12.0,58,0.00,,,0.00,Wunderground v.1.15,2013-03-25 20:17:00,
2013-03-25 16:27:00,38.0,24.1,29.78,NNE,18,8.0,14.0,57,0.00,,,0.00,Wunderground v.1.15,2013-03-25 20:27:00,
2013-03-25 16:37:00,37.8,23.9,29.78,NE,35,8.0,10.0,57,0.00,,,0.00,Wunderground v.1.15,2013-03-25 20:37:00,
2013-03-25 16:47:00,37.8,24.3,29.79,North,349,7.0,9.0,58,0.00,,,0.00,Wunderground v.1.15,2013-03-25 20:47:00,
2013-03-25 16:57:00,38.5,24.6,29.79,North,350,6.0,9.0,57,0.00,,,0.00,Wunderground v.1.15,2013-03-25 20:57:00,
2013-03-25 17:07:00,38.8,24.4,29.79,NNE,14,6.0,8.0,56,0.00,,,0.00,Wunderground v.1.15,2013-03-25 21:07:00,
2013-03-25 17:17:00,38.0,23.7,29.80,NNW,336,7.0,7.0,56,0.00,,,0.00,Wunderground v.1.15,2013-03-25 21:17:00,
2013-03-25 17:27:00,37.9,24.0,29.80,NNW,342,6.0,10.0,57,0.00,,,0.00,Wunderground v.1.15,2013-03-25 21:27:00,
2013-03-25 17:37:00,38.0,23.7,29.80,NE,45,7.0,11.0,56,0.00,,,0.00,Wunderground v.1.15,2013-03-25 21:37:00,
2013-03-25 17:47:00,37.9,23.6,29.81,NNE,13,7.0,8.0,56,0.00,,,0.00,Wunderground v.1.15,2013-03-25 21:47:00,
2013-03-25 18:07:00,38.2,23.9,29.82,NE,53,6.0,6.0,56,0.00,,,0.00,Wunderground v.1.15,2013-03-25 22:07:00,
2013-03-25 18:17:00,38.2,23.9,29.83,NNE,21,6.0,6.0,56,0.00,,,0.00,Wunderground v.1.15,2013-03-25 22:17:00,
2013-03-25 18:27:00,38.2,23.9,29.83,NNE,20,5.0,5.0,56,0.00,,,0.00,Wunderground v.1.15,2013-03-25 22:27:00,
2013-03-25 18:37:00,38.0,23.7,29.83,NNE,22,5.0,9.0,56,0.00,,,0.00,Wunderground v.1.15,2013-03-25 22:37:00,
2013-03-25 18:47:00,38.0,23.7,29.83,NNW,334,5.0,7.0,56,0.00,,,0.00,Wunderground v.1.15,2013-03-25 22:47:00,
2013-03-25 18:57:00,37.9,24.0,29.85,North,355,4.0,8.0,57,0.00,,,0.00,Wunderground v.1.15,2013-03-25 22:57:00,
2013-03-25 19:07:00,37.6,23.7,29.85,NNE,13,5.0,5.0,57,0.00,,,0.00,Wunderground v.1.15,2013-03-25 23:07:00,
2013-03-25 19:17:00,37.5,24.5,29.85,NW,321,3.0,3.0,59,0.00,,,0.00,Wunderground v.1.15,2013-03-25 23:17:00,
2013-03-25 19:27:00,37.0,24.4,29.86,NW,320,4.0,4.0,60,0.00,,,0.00,Wunderground v.1.15,2013-03-25 23:27:00,
2013-03-25 19:37:00,36.8,24.6,29.86,NNW,338,3.0,3.0,61,0.00,,,0.00,Wunderground v.1.15,2013-03-25 23:37:00,
2013-03-25 19:47:00,36.5,24.3,29.87,NNW,340,5.0,5.0,61,0.00,,,0.00,Wunderground v.1.15,2013-03-25 23:47:00,
2013-03-25 19:57:00,36.3,24.1,29.88,North,355,5.0,5.0,61,0.00,,,0.00,Wunderground v.1.15,2013-03-25 23:57:00,
2013-03-25 20:07:00,35.9,24.5,29.88,North,5,4.0,7.0,63,0.00,,,0.00,Wunderground v.1.15,2013-03-26 00:07:00,
2013-03-25 20:17:00,35.8,24.4,29.89,NNW,327,4.0,4.0,63,0.00,,,0.00,Wunderground v.1.15,2013-03-26 00:17:00,
2013-03-25 20:27:00,35.8,24.4,29.90,NNW,348,5.0,5.0,63,0.00,,,0.00,Wunderground v.1.15,2013-03-26 00:27:00,
2013-03-25 20:37:00,35.8,24.4,29.90,NNW,336,4.0,7.0,63,0.00,,,0.00,Wunderground v.1.15,2013-03-26 00:37:00,
2013-03-25 20:47:00,35.8,24.8,29.90,NNW,340,4.0,4.0,64,0.00,,,0.00,Wunderground v.1.15,2013-03-26 00:47:00,
2013-03-25 20:57:00,35.8,24.8,29.91,NNW,333,3.0,3.0,64,0.00,,,0.00,Wunderground v.1.15,2013-03-26 00:57:00,
2013-03-25 21:07:00,35.6,25.0,29.91,NW,320,4.0,8.0,65,0.00,,,0.00,Wunderground v.1.15,2013-03-26 01:07:00,
2013-03-25 21:17:00,35.5,25.3,29.92,NNW,333,6.0,6.0,66,0.00,,,0.00,Wunderground v.1.15,2013-03-26 01:17:00,
2013-03-25 21:27:00,35.2,25.7,29.92,NNW,329,6.0,6.0,68,0.00,,,0.00,Wunderground v.1.15,2013-03-26 01:27:00,
2013-03-25 21:37:00,34.9,25.8,29.92,NW,312,5.0,5.0,69,0.00,,,0.00,Wunderground v.1.15,2013-03-26 01:37:00,
2013-03-25 21:47:00,34.6,25.8,29.93,NNW,337,5.0,5.0,70,0.00,,,0.00,Wunderground v.1.15,2013-03-26 01:47:00,
2013-03-25 21:57:00,34.4,26.0,29.93,NNW,330,5.0,8.0,71,0.00,,,0.00,Wunderground v.1.15,2013-03-26 01:57:00,
2013-03-25 22:07:00,34.3,25.9,29.93,NNW,333,5.0,6.0,71,0.00,,,0.00,Wunderground v.1.15,2013-03-26 02:07:00,
2013-03-25 22:17:00,34.3,26.2,29.94,NNW,344,5.0,5.0,72,0.00,,,0.00,Wunderground v.1.15,2013-03-26 02:17:00,
2013-03-25 22:27:00,34.1,26.0,29.94,NW,322,5.0,5.0,72,0.00,,,0.00,Wunderground v.1.15,2013-03-26 02:27:00,
2013-03-25 22:37:00,34.1,26.0,29.94,NNW,346,5.0,5.0,72,0.00,,,0.00,Wunderground v.1.15,2013-03-26 02:37:00,
2013-03-25 22:47:00,34.0,25.9,29.95,NNW,329,3.0,4.0,72,0.00,,,0.00,Wunderground v.1.15,2013-03-26 02:47:00,
2013-03-25 22:57:00,34.0,25.9,29.96,NNW,330,3.0,3.0,72,0.00,,,0.00,Wunderground v.1.15,2013-03-26 02:57:00,
2013-03-25 23:17:00,34.0,25.6,29.96,NNW,339,3.0,5.0,71,0.00,,,0.00,Wunderground v.1.15,2013-03-26 03:17:00,
2013-03-25 23:27:00,33.8,25.4,29.96,NNW,338,3.0,4.0,71,0.00,,,0.00,Wunderground v.1.15,2013-03-26 03:27:00,
2013-03-25 23:37:00,33.8,25.4,29.96,NNW,333,3.0,3.0,71,0.00,,,0.00,Wunderground v.1.15,2013-03-26 03:37:00,
2013-03-25 23:47:00,33.8,25.4,29.96,NNW,338,3.0,3.0,71,0.00,,,0.00,Wunderground v.1.15,2013-03-26 03:47:00,
2013-03-25 23:57:00,33.7,25.6,29.97,NNW,331,2.0,3.0,72,0.00,,,0.00,Wunderground v.1.15,2013-03-26 03:57:00,